Вернуться в каталог

BREEZE-M R/B

АктивенHEO
NORAD 37603·ROCKET BODY·🇷🇺 Russia

Запущен May 20, 2011 с Baikonur Cosmodrome

Loading…

Ближайшие Пролёты (ближайшие 24 часа)

TLE

СвежийSource: Space-Track

Эпоха: Sep 14, 2026, 07:28 UTC

1 37603U 11021B   26257.31172233 -.00000160  00000-0  00000-0 0  9996
2 37603  14.8054 299.2392 4865078  54.6597 341.7469  1.92764245107780

Отслеживайте BREEZE-M R/B в реальном времени с AllMySat

Download on the App Store